When you browse on this site, cookies collect data to enhance your experience and personalize the content and advertising you see.
Visit our Privacy Policy to learn more. By continuing to use the site, you agree to this use of cookies and data.
  • In United Kingdom
  • List of Countries
  • For 7 days
  • Water Temperature
  • Satellite Maps
  • Weather Map
  • Weather Widgets
  • user-avatar
    Login

    Hourly Weather Stepanakert

    Today, 19 June, Wednesday

    Time Temperature Precipitation Wind Pressure Humidity
    00:00 +19°C° 0.6 mm 2 mps 690 mmHg 74%
    01:00 +19°C° 0 mm 2 mps 690 mmHg 73%
    02:00 +19°C° 0 mm 2 mps 690 mmHg 72%
    03:00 +19°C° 0 mm 2 mps 689 mmHg 70%
    04:00 +19°C° 0 mm 2 mps 690 mmHg 70%
    05:00 +20°C° 0 mm 2 mps 690 mmHg 69%
    06:00 +21°C° 0 mm 2 mps 690 mmHg 69%
    07:00 +23°C° 0 mm 2 mps 690 mmHg 61%
    08:00 +25°C° 0 mm 2 mps 691 mmHg 53%
    09:00 +26°C° 0 mm 2 mps 691 mmHg 46%
    10:00 +27°C° 0 mm 2 mps 691 mmHg 45%
    11:00 +27°C° 0 mm 2 mps 691 mmHg 44%
    12:00 +28°C° 0 mm 3 mps 691 mmHg 43%
    13:00 +28°C° 0 mm 3 mps 690 mmHg 43%
    14:00 +29°C° 0 mm 3 mps 690 mmHg 43%
    15:00 +29°C° 0 mm 3 mps 690 mmHg 43%
    16:00 +28°C° 0 mm 2 mps 690 mmHg 46%
    17:00 +28°C° 0 mm 2 mps 690 mmHg 50%
    18:00 +27°C° 0 mm 1 mps 690 mmHg 53%
    19:00 +26°C° 0 mm 2 mps 690 mmHg 55%
    20:00 +24°C° 0 mm 2 mps 690 mmHg 56%
    21:00 +21°C° 0 mm 2 mps 690 mmHg 57%
    22:00 +21°C° 0 mm 2 mps 690 mmHg 57%
    23:00 +21°C° 0 mm 2 mps 690 mmHg 57%

    Tomorrow, 20 June, Thursday

    Time Temperature Precipitation Wind Pressure Humidity
    00:00 +20°C° 0 mm 2 mps 690 mmHg 57%
    01:00 +20°C° 0 mm 2 mps 690 mmHg 57%
    02:00 +20°C° 0 mm 2 mps 690 mmHg 57%
    03:00 +19°C° 0 mm 2 mps 690 mmHg 58%
    04:00 +20°C° 0 mm 2 mps 690 mmHg 58%
    05:00 +22°C° 0 mm 1 mps 690 mmHg 59%
    06:00 +23°C° 0 mm 1 mps 691 mmHg 60%
    07:00 +24°C° 0 mm 1 mps 691 mmHg 53%
    08:00 +26°C° 0 mm 2 mps 691 mmHg 46%
    09:00 +27°C° 0 mm 2 mps 691 mmHg 40%
    10:00 +28°C° 0 mm 2 mps 691 mmHg 39%
    11:00 +28°C° 0 mm 2 mps 690 mmHg 38%
    12:00 +29°C° 0 mm 3 mps 690 mmHg 37%
    13:00 +29°C° 0 mm 3 mps 689 mmHg 37%
    14:00 +30°C° 0 mm 3 mps 689 mmHg 37%
    15:00 +30°C° 0 mm 3 mps 689 mmHg 37%
    16:00 +29°C° 0 mm 3 mps 689 mmHg 41%
    17:00 +29°C° 0 mm 2 mps 688 mmHg 45%
    18:00 +28°C° 0 mm 2 mps 688 mmHg 49%
    19:00 +26°C° 0 mm 2 mps 688 mmHg 50%
    20:00 +24°C° 0 mm 2 mps 689 mmHg 50%
    21:00 +21°C° 0 mm 2 mps 689 mmHg 51%
    22:00 +21°C° 0 mm 2 mps 689 mmHg 51%
    23:00 +22°C° 0 mm 1 mps 689 mmHg 50%

    Day after tomorrow, 21 June, Friday

    Time Temperature Precipitation Wind Pressure Humidity
    00:00 +21°C° 0 mm 1 mps 689 mmHg 50%
    01:00 +20°C° 0 mm 2 mps 689 mmHg 50%
    02:00 +20°C° 0 mm 2 mps 689 mmHg 51%
    03:00 +19°C° 0 mm 2 mps 689 mmHg 51%
    04:00 +21°C° 0.1 mm 1 mps 689 mmHg 54%
    05:00 +22°C° 0.1 mm 1 mps 689 mmHg 57%
    06:00 +22°C° 0.1 mm 1 mps 690 mmHg 59%
    07:00 +24°C° 0.2 mm 2 mps 690 mmHg 55%
    08:00 +25°C° 0.2 mm 2 mps 690 mmHg 50%
    09:00 +26°C° 0.2 mm 3 mps 690 mmHg 46%
    10:00 +26°C° 0.1 mm 3 mps 690 mmHg 45%
    11:00 +27°C° 0.1 mm 3 mps 690 mmHg 45%
    12:00 +28°C° 0.1 mm 3 mps 690 mmHg 44%
    13:00 +28°C° 0.1 mm 3 mps 690 mmHg 45%
    14:00 +28°C° 0.1 mm 3 mps 690 mmHg 46%
    15:00 +28°C° 0.1 mm 2 mps 690 mmHg 47%
    16:00 +28°C° 0 mm 2 mps 690 mmHg 51%
    17:00 +27°C° 0 mm 2 mps 690 mmHg 55%
    18:00 +26°C° 0 mm 2 mps 690 mmHg 59%
    19:00 +25°C° 0 mm 2 mps 691 mmHg 62%
    20:00 +24°C° 0 mm 2 mps 691 mmHg 65%
    21:00 +22°C° 0 mm 1 mps 691 mmHg 68%
    22:00 +22°C° 0 mm 1 mps 691 mmHg 70%
    23:00 +20°C° 0 mm 2 mps 691 mmHg 71%

    22 June, Saturday

    Time Temperature Precipitation Wind Pressure Humidity
    00:00 +20°C° 0 mm 2 mps 691 mmHg 72%
    01:00 +20°C° 0 mm 2 mps 691 mmHg 72%
    02:00 +20°C° 0 mm 2 mps 691 mmHg 71%
    03:00 +19°C° 0 mm 2 mps 691 mmHg 71%
    04:00 +20°C° 0 mm 2 mps 691 mmHg 70%
    05:00 +22°C° 0 mm 1 mps 692 mmHg 69%
    06:00 +22°C° 0 mm 1 mps 692 mmHg 68%
    07:00 +24°C° 0 mm 2 mps 692 mmHg 60%
    08:00 +26°C° 0 mm 2 mps 693 mmHg 53%
    09:00 +27°C° 0 mm 2 mps 693 mmHg 46%
    10:00 +28°C° 0 mm 2 mps 693 mmHg 44%
    11:00 +29°C° 0 mm 3 mps 693 mmHg 43%
    12:00 +29°C° 0 mm 3 mps 693 mmHg 42%
    13:00 +30°C° 0 mm 3 mps 693 mmHg 42%
    14:00 +30°C° 0 mm 3 mps 692 mmHg 42%
    15:00 +30°C° 0 mm 3 mps 692 mmHg 42%
    16:00 +30°C° 0 mm 2 mps 692 mmHg 45%
    17:00 +29°C° 0 mm 2 mps 692 mmHg 49%
    18:00 +29°C° 0 mm 2 mps 692 mmHg 52%
    19:00 +27°C° 0 mm 2 mps 692 mmHg 54%
    20:00 +25°C° 0 mm 2 mps 692 mmHg 56%
    21:00 +23°C° 0 mm 1 mps 692 mmHg 58%
    22:00 +23°C° 0 mm 2 mps 692 mmHg 58%
    23:00 +23°C° 0 mm 2 mps 692 mmHg 58%

    23 June, Sunday

    Time Temperature Precipitation Wind Pressure Humidity
    00:00 +23°C° 0 mm 2 mps 692 mmHg 58%
    01:00 +21°C° 0 mm 2 mps 692 mmHg 58%
    02:00 +21°C° 0 mm 2 mps 692 mmHg 58%
    03:00 +21°C° 0 mm 2 mps 692 mmHg 58%
    04:00 +23°C° 0 mm 2 mps 692 mmHg 58%
    05:00 +23°C° 0 mm 1 mps 692 mmHg 59%
    06:00 +24°C° 0 mm 1 mps 693 mmHg 60%
    07:00 +26°C° 0 mm 1 mps 693 mmHg 53%
    08:00 +27°C° 0 mm 1 mps 693 mmHg 47%
    09:00 +29°C° 0 mm 1 mps 693 mmHg 41%
    10:00 +30°C° 0 mm 2 mps 693 mmHg 39%
    11:00 +30°C° 0 mm 2 mps 693 mmHg 38%
    12:00 +31°C° 0 mm 2 mps 693 mmHg 37%
    13:00 +32°C° 0 mm 2 mps 693 mmHg 38%
    14:00 +32°C° 0 mm 2 mps 693 mmHg 38%
    15:00 +32°C° 0 mm 2 mps 692 mmHg 38%
    16:00 +32°C° 0 mm 2 mps 692 mmHg 42%
    17:00 +31°C° 0 mm 1 mps 692 mmHg 45%
    18:00 +31°C° 0 mm 1 mps 692 mmHg 49%
    19:00 +29°C° 0 mm 1 mps 692 mmHg 51%
    20:00 +27°C° 0 mm 1 mps 692 mmHg 53%
    21:00 +25°C° 0 mm 1 mps 692 mmHg 55%
    22:00 +25°C° 0 mm 1 mps 692 mmHg 55%
    23:00 +25°C° 0 mm 2 mps 692 mmHg 54%

    24 June, Monday

    Time Temperature Precipitation Wind Pressure Humidity
    00:00 +24°C° 0 mm 2 mps 692 mmHg 54%
    01:00 +24°C° 0 mm 2 mps 692 mmHg 53%
    02:00 +24°C° 0 mm 2 mps 692 mmHg 52%
    03:00 +24°C° 0 mm 2 mps 691 mmHg 51%
    04:00 +24°C° 0 mm 2 mps 692 mmHg 51%
    05:00 +25°C° 0 mm 1 mps 692 mmHg 52%
    06:00 +25°C° 0 mm 1 mps 692 mmHg 52%
    07:00 +27°C° 0 mm 1 mps 692 mmHg 48%
    08:00 +28°C° 0 mm 2 mps 692 mmHg 44%
    09:00 +30°C° 0 mm 2 mps 692 mmHg 39%
    10:00 +30°C° 0 mm 2 mps 692 mmHg 39%
    11:00 +31°C° 0 mm 2 mps 692 mmHg 38%
    12:00 +32°C° 0 mm 2 mps 692 mmHg 38%
    13:00 +32°C° 0 mm 2 mps 692 mmHg 39%
    14:00 +32°C° 0 mm 2 mps 692 mmHg 39%
    15:00 +34°C° 0 mm 2 mps 691 mmHg 40%
    16:00 +32°C° 0 mm 2 mps 691 mmHg 43%
    17:00 +32°C° 0 mm 2 mps 691 mmHg 45%
    18:00 +31°C° 0 mm 2 mps 691 mmHg 48%
    19:00 +29°C° 0 mm 2 mps 691 mmHg 49%
    20:00 +27°C° 0 mm 1 mps 691 mmHg 49%
    21:00 +25°C° 0 mm 1 mps 692 mmHg 50%
    22:00 +25°C° 0 mm 2 mps 692 mmHg 49%
    23:00 +24°C° 0 mm 2 mps 692 mmHg 47%
    Show more